Regional Weather Roundup
Issued by NWS

Home | Current Version | Previous Version | Graphics & Text | Print | Product List | Glossary On
Versions: 1 2 3 4 5 6 7 8 9 10 11 12 13 14 15 16 17 18 19 20 21 22 23 24 25 26 27
000
ASUS45 KSLC 181310
RWRUT

UTAH REGIONAL WEATHER ROUNDUP
NATIONAL WEATHER SERVICE SALT LAKE CITY UT
700 AM MDT FRI APR 18 2014

UTZ001>011-023>025-181400-

NORTHERN UTAH

CITY           SKY/WX    TMP DP  RH WIND       PRES   REMARKS
HILL AFB       CLOUDY    61  25  25 SW13      29.86R
LOGAN          CLOUDY    59  30  33 SE8       29.82S
OGDEN          CLOUDY    62  29  28 SW8       29.83R
PROVO AIRPORT  MOCLDY    55  30  38 SE12      29.89R
SALT LAKE CITY CLOUDY    63  23  21 S20       29.82R
VERNAL         PTCLDY    38  26  62 NW3       29.99R
WENDOVER       CLOUDY    57  32  38 S14       29.84R
HEBER CITY     CLOUDY    45  27  49 CALM      29.91S
WEST JORDAN    CLEAR     59  32  36 SE20      29.85F

$$

UTZ012>022-026-027-181400-

SOUTHERN UTAH

CITY           SKY/WX    TMP DP  RH WIND       PRES   REMARKS
BRYCE CANYON   MOCLDY    30  22  72 SW7       30.09R WCI  23
CEDAR CITY     CLOUDY    54  15  21 S9        29.96S
MILFORD        MOCLDY    46  23  40 S8        29.93S
MOAB/CYNLANDS  CLEAR     49  24  37 SE9       29.97R
PRICE          CLOUDY    44  21  40 N7        30.00F
ST GEORGE      CLOUDY    57  19  23 E5        29.91R
KANAB            N/A     37  21  52 NE7       30.03R WCI  32

$$

REGIONAL REPORTS     COLORADO/ARIZONA

CITY           SKY/WX    TMP DP  RH WIND       PRES   REMARKS
CRAIG, CO      MOCLDY    40  25  55 E3        30.04F
GRAND JUNCTION PTCLDY    48  25  40 E16       30.01R
RIFLE          PTCLDY    34  27  75 SE3       30.08S
MONTROSE       MOCLDY    38  27  64 S6        30.10R WCI  33
CORTEZ         CLEAR     33  24  69 NE6       30.10R WCI  28
PAGE, AZ       CLOUDY    56  22  26 CALM      29.96R
GRAND CANYON   MOCLDY    30  16  56 CALM      30.07S
KINGMAN        MOCLDY    60  20  21 SE13G24   29.89S
FLAGSTAFF      CLOUDY    34  21  59 CALM      30.10R

$$

REGIONAL REPORTS    NEVADA/IDAHO/WYOMING

CITY           SKY/WX    TMP DP  RH WIND       PRES   REMARKS
LAS VEGAS, NV  CLOUDY    70  24  17 S7        29.76R
ELY            MOCLDY    47  19  33 S17       29.94R
ELKO           CLOUDY    50  39  66 SW3       29.92R
POCATELLO, ID  LGT RAIN  44  41  89 SW17      29.91R
BURLEY         CLOUDY    44  41  89 SW9G21    29.91R
EVANSTON, WY   MOCLDY    47  24  40 SW12      29.93S
ROCK SPRINGS   CLOUDY    46  21  37 SW10      29.94F

$$



USA.gov is the U.S. government's official web portal to all federal, state and local government web resources and services.